Total_Precipitation_Accumulation
0.64 0.63 0.62 0.63 0.61 0.76 1.02 1.22 1.24 1.31 1.39 1.31 1.14 1.02 0.97 0.94 0.90 1.01 0.88 0.94 0.94 0.98 1.28 1.37 1.20 1.02 0.91 0.80 0.70 0.61 0.58 0.58 0.54 0.41 0.35 0.39 0.47 0.53 0.50 0.43 0.39 0.38 0.32
1.01 0.97 0.87 0.88 0.79 0.85 0.99 1.22 1.36 1.62 1.58 1.53 1.21 1.11 1.10 1.12 1.06 1.13 1.13 1.26 1.17 1.08 1.21 1.25 1.23 1.14 1.01 0.90 0.76 0.66 0.58 0.56 0.52 0.39 0.32 0.32 0.39 0.50 0.49 0.50 0.47 0.43 0.36
1.37 1.32 1.13 1.04 1.09 1.16 1.22 1.30 1.42 1.66 1.62 1.48 1.21 1.18 1.15 1.06 0.95 0.95 1.02 1.15 1.13 1.04 1.08 1.09 1.13 1.11 1.06 1.05 0.95 0.85 0.68 0.55 0.48 0.39 0.33 0.27 0.26 0.32 0.34 0.40 0.44 0.45 0.39
1.58 1.51 1.27 1.16 1.39 1.43 1.41 1.49 1.53 1.61 1.69 1.71 1.46 1.29 1.21 1.09 0.91 0.90 0.87 0.90 0.95 0.79 0.86 1.00 1.08 1.07 1.16 1.23 1.23 1.19 0.95 0.69 0.51 0.41 0.34 0.28 0.25 0.25 0.22 0.24 0.31 0.32 0.29
1.58 1.59 1.31 1.21 1.49 1.63 1.59 1.50 1.67 1.86 1.82 1.84 1.61 1.37 1.15 0.98 0.81 0.78 0.79 0.74 0.72 0.70 0.71 0.74 0.82 0.88 1.17 1.43 1.45 1.41 1.28 0.96 0.66 0.52 0.47 0.42 0.36 0.33 0.25 0.20 0.22 0.21 0.19
1.45 1.64 1.36 1.36 1.63 1.68 1.62 1.70 1.83 1.99 1.86 1.90 1.73 1.28 1.01 0.77 0.71 0.59 0.52 0.53 0.49 0.45 0.49 0.60 0.75 0.76 0.99 1.18 1.26 1.33 1.39 1.22 0.92 0.69 0.64 0.59 0.54 0.45 0.33 0.26 0.22 0.22 0.18
1.51 1.77 1.54 1.54 1.61 1.54 1.53 1.72 1.85 1.78 1.65 2.05 1.96 1.26 0.79 0.62 0.53 0.36 0.35 0.35 0.31 0.31 0.41 0.56 0.69 0.76 0.76 0.79 0.90 0.97 1.17 1.29 1.17 0.91 0.79 0.75 0.73 0.57 0.42 0.35 0.27 0.24 0.19
1.50 1.61 1.62 1.54 1.55 1.52 1.38 1.46 1.71 1.60 1.33 1.76 1.92 1.68 1.06 0.63 0.43 0.29 0.28 0.26 0.28 0.37 0.42 0.45 0.55 0.68 0.74 0.78 0.82 0.69 0.83 1.10 1.27 1.21 1.03 0.84 0.70 0.56 0.47 0.42 0.34 0.28 0.23
1.55 1.63 1.53 1.39 1.34 1.36 1.23 1.22 1.42 1.50 1.30 1.37 1.71 1.95 1.45 0.84 0.58 0.36 0.37 0.38 0.45 0.53 0.54 0.58 0.61 0.64 0.70 0.83 0.93 0.98 0.72 0.80 1.11 1.47 1.38 1.04 0.71 0.52 0.47 0.48 0.48 0.39 0.33
1.70 1.61 1.44 1.27 1.11 1.10 1.05 1.02 1.18 1.29 1.31 1.13 1.27 1.38 1.33 1.21 1.06 0.65 0.45 0.48 0.60 0.65 0.66 0.71 0.68 0.65 0.71 0.84 0.98 1.10 0.82 0.67 0.79 1.25 1.46 1.33 1.00 0.68 0.55 0.60 0.81 0.76 0.52
1.66 1.50 1.36 1.23 1.12 1.04 0.97 0.95 0.99 1.03 1.08 1.00 1.05 1.12 1.18 1.17 1.08 0.95 0.67 0.65 0.64 0.51 0.51 0.57 0.67 0.80 0.79 0.87 1.06 1.12 1.06 0.99 0.93 0.94 1.02 1.08 1.05 0.87 0.73 0.79 1.13 1.35 1.14
1.24 1.18 1.10 0.99 0.94 0.94 0.95 0.93 0.90 0.92 0.94 0.96 0.98 1.01 1.11 1.18 1.20 1.20 1.00 0.84 0.74 0.61 0.57 0.57 0.62 0.74 0.79 0.82 0.89 1.01 0.99 0.97 0.90 0.85 0.80 0.78 0.78 0.84 0.92 1.10 1.42 1.72 1.86
0.70 0.67 0.69 0.70 0.71 0.72 0.73 0.75 0.74 0.75 0.83 0.89 0.91 0.99 1.10 1.18 1.26 1.28 1.18 0.96 0.84 0.75 0.79 0.72 0.63 0.70 0.69 0.79 0.82 0.74 0.60 0.61 0.57 0.56 0.56 0.59 0.68 0.77 0.82 0.91 1.16 1.49 1.77
0.50 0.48 0.51 0.54 0.56 0.59 0.61 0.64 0.64 0.64 0.65 0.70 0.74 0.89 1.02 1.05 1.15 1.23 1.23 1.17 1.08 1.01 1.04 0.95 0.76 0.71 0.71 0.72 0.68 0.56 0.49 0.42 0.34 0.29 0.27 0.27 0.32 0.47 0.63 0.78 0.92 1.04 1.21
0.44 0.45 0.49 0.54 0.57 0.60 0.61 0.60 0.60 0.61 0.69 0.74 0.77 0.86 0.94 0.99 1.06 1.15 1.23 1.27 1.29 1.24 1.21 1.11 0.85 0.74 0.67 0.64 0.64 0.55 0.56 0.40 0.23 0.17 0.16 0.16 0.16 0.19 0.29 0.47 0.66 0.81 1.02
0.43 0.46 0.48 0.55 0.58 0.57 0.55 0.54 0.55 0.58 0.66 0.76 0.85 0.96 0.99 1.00 1.01 1.10 1.22 1.37 1.46 1.42 1.28 1.05 0.91 0.89 0.82 0.69 0.60 0.46 0.41 0.34 0.22 0.16 0.15 0.14 0.14 0.16 0.22 0.35 0.50 0.64 0.80
0.41 0.45 0.48 0.51 0.52 0.53 0.53 0.55 0.56 0.61 0.67 0.72 0.76 0.88 0.96 0.98 1.01 1.06 1.15 1.23 1.36 1.47 1.33 1.13 1.08 1.11 1.10 0.99 0.79 0.58 0.40 0.31 0.23 0.17 0.13 0.11 0.12 0.19 0.27 0.34 0.44 0.52 0.60
0.48 0.49 0.51 0.53 0.51 0.54 0.61 0.68 0.67 0.71 0.76 0.77 0.78 0.80 0.80 0.85 0.95 0.97 1.03 1.07 1.17 1.34 1.28 1.19 1.21 1.24 1.23 1.14 0.97 0.75 0.53 0.37 0.30 0.20 0.14 0.11 0.11 0.14 0.18 0.22 0.31 0.45 0.55
0.53 0.54 0.59 0.67 0.69 0.69 0.69 0.74 0.80 0.81 0.75 0.70 0.70 0.69 0.67 0.68 0.73 0.82 0.91 0.91 0.93 1.05 1.15 1.21 1.29 1.34 1.40 1.26 1.04 0.85 0.68 0.55 0.38 0.26 0.18 0.14 0.13 0.14 0.14 0.15 0.20 0.30 0.44
0.44 0.49 0.57 0.68 0.77 0.81 0.84 0.80 0.75 0.73 0.67 0.63 0.58 0.55 0.57 0.60 0.61 0.64 0.74 0.78 0.81 0.90 1.01 1.10 1.26 1.40 1.39 1.39 1.24 1.02 0.87 0.76 0.55 0.37 0.30 0.24 0.21 0.17 0.15 0.13 0.14 0.20 0.32
0.40 0.51 0.62 0.70 0.82 0.88 0.83 0.80 0.72 0.68 0.67 0.59 0.53 0.48 0.47 0.46 0.48 0.54 0.57 0.61 0.66 0.75 0.81 0.89 1.04 1.23 1.30 1.33 1.24 1.06 0.92 0.89 0.75 0.50 0.42 0.40 0.37 0.31 0.28 0.23 0.16 0.15 0.22
0.36 0.43 0.50 0.56 0.59 0.56 0.58 0.55 0.52 0.50 0.51 0.48 0.45 0.44 0.40 0.37 0.40 0.42 0.40 0.46 0.51 0.55 0.64 0.76 0.84 1.00 1.13 1.16 1.20 1.23 1.09 0.91 0.85 0.74 0.62 0.60 0.55 0.50 0.41 0.32 0.24 0.16 0.16
0.31 0.36 0.38 0.41 0.42 0.42 0.35 0.31 0.30 0.31 0.36 0.38 0.39 0.40 0.33 0.29 0.34 0.35 0.32 0.30 0.33 0.37 0.44 0.58 0.69 0.78 0.94 1.05 1.12 1.25 1.24 1.16 1.04 0.95 0.85 0.80 0.65 0.57 0.51 0.44 0.35 0.22 0.17
0.35 0.36 0.36 0.36 0.40 0.38 0.30 0.23 0.21 0.20 0.26 0.29 0.34 0.37 0.36 0.32 0.32 0.33 0.31 0.26 0.22 0.25 0.29 0.36 0.45 0.59 0.80 1.05 1.13 1.13 1.21 1.25 1.20 1.07 0.95 0.97 0.90 0.79 0.73 0.64 0.54 0.36 0.25
0.43 0.41 0.39 0.38 0.40 0.41 0.32 0.22 0.19 0.21 0.28 0.29 0.30 0.33 0.35 0.33 0.34 0.28 0.28 0.28 0.27 0.25 0.25 0.31 0.36 0.47 0.63 0.85 1.12 1.12 1.03 0.97 0.93 0.74 0.57 0.62 0.77 0.83 0.89 0.87 0.75 0.61 0.45
0.51 0.48 0.44 0.45 0.48 0.52 0.44 0.26 0.21 0.25 0.32 0.37 0.41 0.40 0.37 0.36 0.34 0.28 0.28 0.31 0.28 0.26 0.25 0.25 0.28 0.35 0.42 0.55 0.79 0.92 0.83 0.69 0.61 0.56 0.39 0.31 0.37 0.45 0.61 0.69 0.69 0.66 0.59